timestamp,surface_pressure_avg,surface_temp_avg,battery_voltage,lat,long
2022-03-27 00:09:01+00:00,232.6881,1.23,11.37,47.84626,-54.09684
2022-03-27 00:19:01+00:00,231.0914,1.25,11.37,47.84626,-54.09684
2022-03-27 00:29:01+00:00,227.7182,1.25,11.37,47.84626,-54.09684
2022-03-27 00:39:01+00:00,226.2864,1.2,11.37,47.84626,-54.09684
2022-03-27 00:49:01+00:00,224.1331,1.2,11.37,47.84626,-54.09684
2022-03-27 00:59:01+00:00,221.5564,1.2,11.37,47.84626,-54.09684
2022-03-27 01:09:01+00:00,217.5381,1.2,11.37,47.84626,-54.09684
2022-03-27 01:19:00+00:00,217.0081,1.22,11.37,47.84626,-54.09684
2022-03-27 01:29:00+00:00,218.3214,1.24,11.37,47.84626,-54.09684
2022-03-27 01:39:00+00:00,220.7431,1.25,11.37,47.84626,-54.09684
2022-03-27 01:49:00+00:00,226.7914,1.23,11.37,47.84626,-54.09684
2022-03-27 01:59:00+00:00,229.2314,1.23,11.37,47.84626,-54.09684
2022-03-27 02:09:00+00:00,226.1381,1.24,11.37,47.84626,-54.09684
2022-03-27 02:19:01+00:00,231.5314,1.22,11.37,47.84626,-54.09684
2022-03-27 02:29:01+00:00,241.9897,1.24,11.37,47.84626,-54.09684
2022-03-27 02:39:01+00:00,239.4031,1.3,11.37,47.84626,-54.09684
2022-03-27 02:49:01+00:00,236.7147,1.3,11.37,47.84626,-54.09684
2022-03-27 02:59:01+00:00,240.4397,1.3,11.37,47.84626,-54.09684
2022-03-27 03:09:01+00:00,245.7014,1.29,11.37,47.84626,-54.09684
2022-03-27 03:19:01+00:00,247.4981,1.29,11.3,47.84626,-54.09684
2022-03-27 03:29:01+00:00,251.0663,1.29,11.3,47.84626,-54.09684
2022-03-27 03:39:01+00:00,260.0814,1.28,11.3,47.84626,-54.09684
2022-03-27 03:49:01+00:00,269.8964,1.29,11.3,47.84626,-54.09684
2022-03-27 03:59:01+00:00,274.1447,1.3,11.3,47.84626,-54.09684
2022-03-27 04:09:01+00:00,277.5897,1.3,11.3,47.84626,-54.09684
2022-03-27 04:19:00+00:00,290.1031,1.3,11.3,47.84626,-54.09684
2022-03-27 04:29:00+00:00,296.8863,1.3,11.3,47.84626,-54.09684
2022-03-27 04:39:00+00:00,297.6847,1.3,11.3,47.84626,-54.09684
2022-03-27 04:49:00+00:00,299.7447,1.3,11.3,47.84626,-54.09684
2022-03-27 04:59:00+00:00,308.3547,1.3,11.3,47.84626,-54.09684
2022-03-27 05:09:00+00:00,315.0563,1.3,11.3,47.84626,-54.09684
2022-03-27 05:19:00+00:00,319.9114,1.34,11.3,47.84626,-54.09684
2022-03-27 05:29:00+00:00,321.7479,1.3,11.3,47.84626,-54.09684
2022-03-27 05:39:00+00:00,325.3414,1.3,11.3,47.84626,-54.09684
2022-03-27 05:49:00+00:00,330.658,1.36,11.3,47.84626,-54.09684
2022-03-27 05:59:00+00:00,335.6364,1.4,11.3,47.84626,-54.09684
2022-03-27 06:09:00+00:00,332.8746,1.39,11.3,47.84626,-54.09684
2022-03-27 06:19:01+00:00,338.6197,1.33,11.3,47.84626,-54.09684
2022-03-27 06:29:01+00:00,343.4496,1.39,11.3,47.84626,-54.09684
2022-03-27 06:39:01+00:00,345.728,1.4,11.3,47.84626,-54.09684
2022-03-27 06:49:01+00:00,339.8013,1.35,11.3,47.84626,-54.09684
2022-03-27 06:59:01+00:00,339.4547,1.3,11.3,47.84626,-54.09684
2022-03-27 07:09:01+00:00,351.3929,1.4,11.3,47.84626,-54.09684
2022-03-27 07:19:00+00:00,353.2496,1.4,11.3,47.84626,-54.09684
2022-03-27 07:29:00+00:00,345.978,1.4,11.3,47.84626,-54.09684
2022-03-27 07:39:00+00:00,352.1447,1.3,11.3,47.84626,-54.09684
2022-03-27 07:49:00+00:00,364.1796,1.39,11.3,47.84626,-54.09684
2022-03-27 07:59:00+00:00,357.0897,1.4,11.3,47.84626,-54.09684
2022-03-27 08:09:00+00:00,349.048,1.39,11.3,47.84626,-54.09684
2022-03-27 08:19:00+00:00,360.3646,1.39,11.3,47.84626,-54.09684
2022-03-27 08:29:00+00:00,362.423,1.39,11.3,47.84626,-54.09684
2022-03-27 08:39:00+00:00,345.6663,1.4,11.3,47.84626,-54.09684
2022-03-27 08:49:00+00:00,339.8846,1.39,11.3,47.84626,-54.09684
2022-03-27 08:59:00+00:00,346.5229,1.39,11.3,47.84626,-54.09684
2022-03-27 09:09:00+00:00,343.6763,1.39,11.3,47.84626,-54.09684
2022-03-27 09:19:01+00:00,335.7847,1.38,11.3,47.84626,-54.09684
2022-03-27 09:29:01+00:00,337.4247,1.39,11.3,47.84626,-54.09684
2022-03-27 09:39:01+00:00,338.4980000000001,1.4,11.3,47.84626,-54.09684
2022-03-27 09:49:01+00:00,328.8880000000001,1.4,11.3,47.84626,-54.09684
2022-03-27 09:59:01+00:00,316.3864,1.39,11.3,47.84626,-54.09684
2022-03-27 10:09:01+00:00,302.5831,1.38,11.3,47.84626,-54.09684
2022-03-27 10:19:00+00:00,292.7197,1.4,11.3,47.84626,-54.09684
2022-03-27 10:29:00+00:00,284.0797,1.4,11.3,47.84626,-54.09684
2022-03-27 10:39:00+00:00,281.7681,1.4,11.3,47.84626,-54.09684
2022-03-27 10:49:00+00:00,278.0831,1.4,11.3,47.84626,-54.09684
2022-03-27 10:59:00+00:00,274.4314,1.4,11.3,47.84626,-54.09684
2022-03-27 11:09:00+00:00,273.6348,1.4,11.3,47.84626,-54.09684
2022-03-27 11:19:00+00:00,276.0065,1.4,11.3,47.84626,-54.09684
2022-03-27 11:29:00+00:00,268.8481,1.4,11.3,47.84626,-54.09684
2022-03-27 11:39:00+00:00,266.1364,1.4,11.3,47.84626,-54.09684
2022-03-27 11:49:00+00:00,267.0731,1.4,11.3,47.84626,-54.09684
2022-03-27 11:59:00+00:00,265.8214,1.4,11.3,47.84626,-54.09684
2022-03-27 12:09:00+00:00,254.7264,1.4,11.3,47.84626,-54.09684
2022-03-27 12:19:00+00:00,245.6814,1.4,11.3,47.84626,-54.09684
2022-03-27 12:29:00+00:00,245.3797,1.4,11.3,47.84626,-54.09684
2022-03-27 12:39:00+00:00,251.8797,1.4,11.3,47.84626,-54.09684
2022-03-27 12:49:00+00:00,248.6164,1.4,11.3,47.84626,-54.09684
2022-03-27 12:59:00+00:00,240.8114,1.4,11.3,47.84626,-54.09684
2022-03-27 13:09:00+00:00,246.6714,1.4,11.3,47.84626,-54.09684
2022-03-27 13:19:01+00:00,251.1247,1.4,11.3,47.84626,-54.09684
2022-03-27 13:29:01+00:00,245.5931,1.4,11.3,47.84626,-54.09684
2022-03-27 13:39:01+00:00,239.7864,1.39,11.3,47.84626,-54.09684
2022-03-27 13:49:01+00:00,241.9965,1.4,11.3,47.84626,-54.09684
2022-03-27 13:59:01+00:00,239.8065,1.4,11.3,47.84626,-54.09684
2022-03-27 14:09:01+00:00,230.9131,1.4,11.3,47.84626,-54.09684
2022-03-27 14:19:01+00:00,230.0731,1.4,11.3,47.84626,-54.09684
2022-03-27 14:29:01+00:00,231.3331,1.4,11.3,47.84626,-54.09684
2022-03-27 14:39:01+00:00,229.5681,1.4,11.3,47.84626,-54.09684
2022-03-27 14:49:01+00:00,232.2448,1.4,11.3,47.84626,-54.09684
2022-03-27 14:59:01+00:00,240.1414,1.4,11.3,47.84626,-54.09684
2022-03-27 15:09:01+00:00,241.1298,1.4,11.3,47.84626,-54.09684
2022-03-27 15:19:01+00:00,237.8581,1.4,11.3,47.84626,-54.09684
2022-03-27 15:29:01+00:00,242.1364,1.4,11.3,47.84626,-54.09684
2022-03-27 15:39:01+00:00,243.6615,1.4,11.3,47.84626,-54.09684
2022-03-27 15:49:01+00:00,242.9681,1.4,11.3,47.84626,-54.09684
2022-03-27 15:59:01+00:00,242.7448,1.4,11.3,47.84626,-54.09684
2022-03-27 16:09:01+00:00,243.8014,1.42,11.3,47.84626,-54.09684
2022-03-27 16:19:01+00:00,236.1664,1.45,11.3,47.84626,-54.09684
2022-03-27 16:29:01+00:00,236.0281,1.47,11.3,47.84626,-54.09684
2022-03-27 16:39:01+00:00,248.1581,1.45,11.3,47.84626,-54.09684
2022-03-27 16:49:01+00:00,260.2314,1.4,11.3,47.84626,-54.09684
2022-03-27 16:59:01+00:00,261.7698,1.43,11.3,47.84626,-54.09684
2022-03-27 17:09:01+00:00,270.6531,1.4,11.3,47.84626,-54.09684
2022-03-27 17:19:01+00:00,280.2197,1.4,11.3,47.84626,-54.09684
2022-03-27 17:29:01+00:00,291.5797,1.4,11.3,47.84626,-54.09684
2022-03-27 17:39:01+00:00,289.5081,1.43,11.3,47.84626,-54.09684
2022-03-27 17:49:01+00:00,289.7264,1.47,11.3,47.84626,-54.09684
2022-03-27 17:59:01+00:00,289.5197,1.49,11.3,47.84626,-54.09684
2022-03-27 18:09:01+00:00,293.0613,1.48,11.3,47.84626,-54.09684
2022-03-27 18:19:00+00:00,296.4797,1.49,11.3,47.84626,-54.09684
2022-03-27 18:29:00+00:00,300.4213,1.49,11.3,47.84626,-54.09684
2022-03-27 18:39:00+00:00,303.7964,1.47,11.3,47.84626,-54.09684
2022-03-27 18:49:00+00:00,303.8097,1.45,11.3,47.84626,-54.09684
2022-03-27 18:59:00+00:00,307.683,1.45,11.3,47.84626,-54.09684
2022-03-27 19:09:00+00:00,318.433,1.46,11.3,47.84626,-54.09684
2022-03-27 19:19:01+00:00,320.7546,1.45,11.3,47.84626,-54.09684
2022-03-27 19:29:01+00:00,319.5997,1.46,11.3,47.84626,-54.09684
2022-03-27 19:39:01+00:00,316.678,1.46,11.3,47.84626,-54.09684
2022-03-27 19:49:01+00:00,324.2296,1.47,11.3,47.84626,-54.09684
2022-03-27 19:59:01+00:00,328.5447,1.45,11.3,47.84626,-54.09684
2022-03-27 20:09:01+00:00,326.4613,1.48,11.3,47.84626,-54.09684
2022-03-27 20:19:00+00:00,325.1596,1.5,11.3,47.84626,-54.09684
2022-03-27 20:29:00+00:00,328.6379,1.49,11.3,47.84626,-54.09684
2022-03-27 20:39:00+00:00,331.3929,1.49,11.3,47.84626,-54.09684
2022-03-27 20:49:00+00:00,323.7363,1.5,11.3,47.84626,-54.09684
2022-03-27 20:59:00+00:00,320.0681,1.5,11.3,47.84626,-54.09684
2022-03-27 21:09:00+00:00,321.5963,1.5,11.3,47.84626,-54.09684
2022-03-27 21:19:01+00:00,322.6863,1.5,11.3,47.84626,-54.09684
2022-03-27 21:29:01+00:00,316.6114,1.5,11.3,47.84626,-54.09684
2022-03-27 21:39:01+00:00,312.798,1.5,11.3,47.84626,-54.09684
2022-03-27 21:49:01+00:00,313.5496,1.49,11.3,47.84626,-54.09684
2022-03-27 21:59:01+00:00,310.8313,1.49,11.3,47.84626,-54.09684
2022-03-27 22:09:01+00:00,299.3297,1.49,11.3,47.84626,-54.09684
2022-03-27 22:19:00+00:00,295.8831,1.48,11.3,47.84626,-54.09684
2022-03-27 22:29:00+00:00,296.5597,1.49,11.3,47.84626,-54.09684
2022-03-27 22:39:00+00:00,289.3847,1.49,11.3,47.84626,-54.09684
2022-03-27 22:49:00+00:00,275.653,1.5,11.3,47.84626,-54.09684
2022-03-27 22:59:00+00:00,269.243,1.5,11.3,47.84626,-54.09684
2022-03-27 23:09:00+00:00,272.5314,1.5,11.3,47.84626,-54.09684
2022-03-27 23:19:01+00:00,270.2414,1.5,11.3,47.84626,-54.09684
2022-03-27 23:29:01+00:00,264.7248,1.5,11.3,47.84626,-54.09684
2022-03-27 23:39:01+00:00,263.9481,1.5,11.3,47.84626,-54.09684
2022-03-27 23:49:01+00:00,266.1681,1.5,11.3,47.84626,-54.09684
2022-03-27 23:59:01+00:00,262.3047,1.5,11.3,47.84626,-54.09684
